Погода в Кирове

Хотите узнать прогноз погоды в Кирове? Тогда Вам сюда: Погода в Кирове

Поиск расширенной информации на нашем сайте:

Полезная информация:

Новости сайта



02.01.2020
Опубликован Долгосрочный прогноз погоды по городам России и ближнего зарубежья на январь 2020 года.
Карты: Прогноз на январь и февраль 2020 года, Сравнение прогнозируемой аномалии приземной температуры воздуха на январь 2020 года по разным моделям.




Погода в Кирове - сегодня

Время (UTC), дата Ветер
(°,м/с) 
Видим.   Явления Облачность Т
(°С)
Тd
(°С)
f(%) Тe
(°С)
Pmin
(гПа)
dP
(гПа)
Po
(мм)
O2
(г/м3)
Тmin Tmax R s Состояние
почвы
18 24.01.20 170 (Ю) 2-6{06}  20000 м    8/5 600 м средняя 
[Sc|Ac trans]
-8.5 -10.9 83 -10  994.5  -2.1  731  305           
21 24.01.20 170 (Ю) 3-5{06}  10 км  слаб. снег  10/8 600 м средняя 
[Sc|As op]
-8.7 -10.7 85 -12  991.8  -2.6  729  304           
00 25.01.20 170 (Ю) 3-4{06}  10 км  слаб. снег  10/6 600 м средняя 
[Sc|As op]
-9.1 -11.2 85 -12  989.2  -2.6  727  304           
03 25.01.20 170 (Ю) 2-4{05}  10 км  слаб. снег  10/8 600 м средняя 
[Sc|As op]
-8.6 -10.6 85 -10  986.9  -2.2  725  303  -9.2    39  равномерный
сухой снег
100% 
06 25.01.20 220 (ЮЗ) 2-4{05}  20000 м  {снег}  10/5 600 м кучево-дожд., средняя 
[Cb calv|As op]
-6.5 -8.2 88 -8  986.1  -0.6  725  300           
09 25.01.20 290 (З) 2-6{06}  20000 м  {снег}  10/8 600 м кучево-дожд., средняя, верхняя 
[Cb calv|Ac As|Ci fib]
-3.2 -5.4 85 -4  986.3  0.4  725  296           
12 25.01.20 260 (З) 2-5{06}  10 км  слаб. ливневой снег  10/8 300 м кучево-дожд., средняя 
[Cb cap|Ac trans]
-2.5 -4.1 89 -4  986.5  0.2  725  295           
15 25.01.20 250 (З) 2-3{06}  20000 м  {ливн. осадки}  6/3 600 м кучево-дожд., средняя 
[Cb calv|Ac trans]
-3.4 -5.4 86 -5  987  0.4  726  297    -2.4     
18 25.01.20 260 (З) 2-4{05}  20000 м  {ливн. осадки}  9/9 600 м 
[Sc]
-4 -6.1 85 -5  987.2  0.2  726  297           
21 25.01.20 260 (З) 2-3{05}  20000 м  слаб. ливневой снег  10/10 600 м кучево-дожд. 
[Cb cap]
-4.1 -6.2 85 -5  987.7  0.5  726  298           
00 26.01.20 260 (З) 1-2{04}  20000 м  слаб. ливневой снег  8/8 600 м кучево-дожд. 
[Cb cap]
-4.8 -6.8 86 -4  988.6  0.8  727  299           
03 26.01.20 310 (СЗ) 1-3{04}  20000 м  {ливн. осадки}  10/10 600 м кучево-дожд. 
[Cb calv]
-4.8 -6.7 87 -4  990.4  1.8  728  299  -5.2    0.2  41  равномерный
сухой снег
100% 
06 26.01.20 300 (СЗ) 1-4{05}  20000 м  {ливн. осадки}  10/6 600 м средняя 
[Sc|Ac As]
-5 -7.8 81 -5  992.9  2.4  730  300           
09 26.01.20 320 (СЗ) 1-4{05}  10 км  слаб. ливневой снег  10/6 300 м кучево-дожд., средняя 
[Cb cap|As op]
-5.3 -8.5 78 -5  995.2  2.3  732  301           
12 26.01.20 320 (СЗ) 2-5{07}  20000 м  в посл. час ливневой снег  9/4 300 м кучево-дожд., средняя 
[Cb cap|Ac trans]
-7.2 -12 69 -9  998.3  2.9  734  305           
15 26.01.20 300 (СЗ) 2-4{06}  10 км  слаб. ливневой снег  10/5 300 м кучево-дожд., средняя 
[Cb cap|As trans]
-9.3 -12.2 79 -11  1001.2  2.6  736  308    -4.8  0.4     
18 26.01.20 290 (З) 2-4{06}  10 км  слаб. снег{ливн. осадки}  10/0 средняя 
[As trans]
-11 -13.4 82 -13  1001.6  0.3  736  310           
21 26.01.20 310 (СЗ) 1-3{06}  10 км  слаб. снег  10/8 600 м средняя 
[Sc|As op]
-11.2 -14.4 77 -11  1001.8  0.1  736  310           
00 27.01.20 тихо () -0{04}  10 км  слаб. снег  10/10 600 м 
[Sc]
-11.6 -14.4 80 -12  1000.5  -1.2  735  311           
03 27.01.20 110 (В) 1-2{02}  10 км  слаб. снег  10/0 средняя 
[Ac As]
-12.6 -14.9 83 -13  999.9  -0.7  735  312  -12.6    0.2  42  равномерный
сухой снег
100% 
06 27.01.20 090 (В) 1-1{02}  4000 м  снег  10/0 средняя 
[Ac As]
-12.5 -15 82 -12  1001  1.1  735  312  -12.8         
09 27.01.20 300 (СЗ) 1-1{02}  4000 м  слаб. снег  10/0 средняя 
[Ac As]
-10.9 -14.2 77 -11  1002.8  1.8  737  310           
12 27.01.20 310 (СЗ) 2-4{04}  10 км  слаб. снег  10/0 средняя 
[Ac As]
-10.7 -13.5 80 -13  1005.4  2.6  739  311           
15 27.01.20 310 (СЗ) 1-4{06}  10 км  слаб. снег  10/0 средняя 
[Ac As]
-13.7 -16.8 77 -14  1010.2  4.5  742  316    -10.4  0.7     
18 27.01.20 310 (СЗ) 1-2{05}  20000 м  {снег}  4/0 средняя 
[Ac trans]
-16.5 -19.2 80 -17  1013.9  3.4  745  321           
Время (UTC), дата Ветер
(°,м/с) 
Видим.   Явления Облачность Т
(°С)
Тd
(°С)
f(%) Тe
(°С)
Pmin
(гПа)
dP
(гПа)
Po
(мм)
O2
(г/м3)
Тmin Tmax R s Состояние
почвы

Для получения пояснительной информации подведите курсор к названию столбца.

ПОГОДА в Кирове - архив

Всё, что Вы хотите узнать о погоде в Кирове - удобно и подробно!

Выберите нужную дату (начиная с 1 января 2019* года) и нажмите кнопку "Найти".
Будут отображены архивные сводки погоды по пункту Киров, начиная с указанной даты.


Отображать данные в формате CSV (для использования в таблицах Excel)


Внимание! Наш архив погоды предназначен исключительно для личного некоммерческого использования в познавательных целях. Если Вам необходимы официальные справки о состоянии погоды (для производственных, юридических, коммерческих и т.п. целей), обращайтесь в органы Росгидромета.

*Примечание: данная дата относится к архиву по метеостанциям СССР (Россия, СНГ, Балтия).
Архив по метеостанциям Зарубежной Европы и Азии (кроме Китая) хранится 10 дней, по другим регионам земного шара (Китай, Африка, Америка, Австралия, Океания) - 1 день.

Киров - район местоположения метеостанции


Название, широта, долгота, высота метеостанции:
Киров 58.6°ш. 49.6°д. 158 м над ур. моря [Российская Федерация]

Дополнительная информация

В oтличие oт бoльшинства пoгoдных сайтoв мы публикуем пoдрoбную метеoинфoрмацию в детальнoм прoфессиoнальнoм фoрмате.

Характеристики температуры и влажнoсти вoздуха измеряются на высoте 2 м в тени вдали oт зданий и деревьев.
Скoрoсть ветра измеряется на высoте 10 м (на урoвне рoста челoвека скoрoсть ветра ниже в 1.5-2 раза). Если метеoстанция нахoдится в гoрoде или в лесу, тo скoрoсть ветра занижена на 2-4 м/с пo сравнению с oткрытым местoм. Скoрoсть ветра над акватoриями крупных рек и oзёр, а также на вершинах хoлмoв на 2-5 м/с выше, чем в oбычных услoвиях.
Атмoсфернoе давление в разных тoчках местнoсти мoжет значительнo oтличаться oт давления на метеoстанции, в зависимoсти oт услoвий рельефа (при пoдъёме на 10 м давление пoнижается примернo на 1 мм рт.ст.).